Index of /20260424/WXO-DD/model_gdps/15km/12/150
Name Last modified Size Description
Parent Directory -
20260424T12Z_MSC_GDPS_AbsoluteVorticity_IsbL-0200_LatLon0.15_PT150H.grib2 2026-04-24 16:32 1.5M
20260424T12Z_MSC_GDPS_AbsoluteVorticity_IsbL-0250_LatLon0.15_PT150H.grib2 2026-04-24 16:32 1.3M
20260424T12Z_MSC_GDPS_AbsoluteVorticity_IsbL-0500_LatLon0.15_PT150H.grib2 2026-04-24 16:32 1.2M
20260424T12Z_MSC_GDPS_AbsoluteVorticity_IsbL-0700_LatLon0.15_PT150H.grib2 2026-04-24 16:32 1.3M
20260424T12Z_MSC_GDPS_AbsoluteVorticity_IsbL-0850_LatLon0.15_PT150H.grib2 2026-04-24 16:32 1.6M
20260424T12Z_MSC_GDPS_AirTemp-Max_AGL-2m_LatLon0.15_PT150H.grib2 2026-04-24 16:32 746K
20260424T12Z_MSC_GDPS_AirTemp-Min_AGL-2m_LatLon0.15_PT150H.grib2 2026-04-24 16:32 795K
20260424T12Z_MSC_GDPS_AirTemp_AGL-120m_LatLon0.15_PT150H.grib2 2026-04-24 16:32 795K
20260424T12Z_MSC_GDPS_AirTemp_AGL-2m_LatLon0.15_PT150H.grib2 2026-04-24 16:32 1.0M
20260424T12Z_MSC_GDPS_AirTemp_AGL-40m_LatLon0.15_PT150H.grib2 2026-04-24 16:32 818K
20260424T12Z_MSC_GDPS_AirTemp_AGL-80m_LatLon0.15_PT150H.grib2 2026-04-24 16:32 806K
20260424T12Z_MSC_GDPS_AirTemp_IsbL-0001_LatLon0.15_PT150H.grib2 2026-04-24 16:32 708K
20260424T12Z_MSC_GDPS_AirTemp_IsbL-0005_LatLon0.15_PT150H.grib2 2026-04-24 16:32 744K
20260424T12Z_MSC_GDPS_AirTemp_IsbL-0010_LatLon0.15_PT150H.grib2 2026-04-24 16:32 753K
20260424T12Z_MSC_GDPS_AirTemp_IsbL-0020_LatLon0.15_PT150H.grib2 2026-04-24 16:32 782K
20260424T12Z_MSC_GDPS_AirTemp_IsbL-0030_LatLon0.15_PT150H.grib2 2026-04-24 16:32 747K
20260424T12Z_MSC_GDPS_AirTemp_IsbL-0050_LatLon0.15_PT150H.grib2 2026-04-24 16:32 798K
20260424T12Z_MSC_GDPS_AirTemp_IsbL-0100_LatLon0.15_PT150H.grib2 2026-04-24 16:32 960K
20260424T12Z_MSC_GDPS_AirTemp_IsbL-0150_LatLon0.15_PT150H.grib2 2026-04-24 16:32 1.0M
20260424T12Z_MSC_GDPS_AirTemp_IsbL-0175_LatLon0.15_PT150H.grib2 2026-04-24 16:32 961K
20260424T12Z_MSC_GDPS_AirTemp_IsbL-0200_LatLon0.15_PT150H.grib2 2026-04-24 16:32 1.0M
20260424T12Z_MSC_GDPS_AirTemp_IsbL-0225_LatLon0.15_PT150H.grib2 2026-04-24 16:32 1.0M
20260424T12Z_MSC_GDPS_AirTemp_IsbL-0250_LatLon0.15_PT150H.grib2 2026-04-24 16:32 1.0M
20260424T12Z_MSC_GDPS_AirTemp_IsbL-0275_LatLon0.15_PT150H.grib2 2026-04-24 16:32 1.0M
20260424T12Z_MSC_GDPS_AirTemp_IsbL-0300_LatLon0.15_PT150H.grib2 2026-04-24 16:32 1.0M
20260424T12Z_MSC_GDPS_AirTemp_IsbL-0350_LatLon0.15_PT150H.grib2 2026-04-24 16:32 925K
20260424T12Z_MSC_GDPS_AirTemp_IsbL-0400_LatLon0.15_PT150H.grib2 2026-04-24 16:32 938K
20260424T12Z_MSC_GDPS_AirTemp_IsbL-0450_LatLon0.15_PT150H.grib2 2026-04-24 16:32 962K
20260424T12Z_MSC_GDPS_AirTemp_IsbL-0500_LatLon0.15_PT150H.grib2 2026-04-24 16:32 1.0M
20260424T12Z_MSC_GDPS_AirTemp_IsbL-0550_LatLon0.15_PT150H.grib2 2026-04-24 16:32 803K
20260424T12Z_MSC_GDPS_AirTemp_IsbL-0600_LatLon0.15_PT150H.grib2 2026-04-24 16:32 898K
20260424T12Z_MSC_GDPS_AirTemp_IsbL-0650_LatLon0.15_PT150H.grib2 2026-04-24 16:32 926K
20260424T12Z_MSC_GDPS_AirTemp_IsbL-0700_LatLon0.15_PT150H.grib2 2026-04-24 16:32 961K
20260424T12Z_MSC_GDPS_AirTemp_IsbL-0750_LatLon0.15_PT150H.grib2 2026-04-24 16:32 1.0M
20260424T12Z_MSC_GDPS_AirTemp_IsbL-0800_LatLon0.15_PT150H.grib2 2026-04-24 16:32 1.1M
20260424T12Z_MSC_GDPS_AirTemp_IsbL-0850_LatLon0.15_PT150H.grib2 2026-04-24 16:32 1.1M
20260424T12Z_MSC_GDPS_AirTemp_IsbL-0875_LatLon0.15_PT150H.grib2 2026-04-24 16:32 1.2M
20260424T12Z_MSC_GDPS_AirTemp_IsbL-0900_LatLon0.15_PT150H.grib2 2026-04-24 16:32 1.1M
20260424T12Z_MSC_GDPS_AirTemp_IsbL-0925_LatLon0.15_PT150H.grib2 2026-04-24 16:32 1.1M
20260424T12Z_MSC_GDPS_AirTemp_IsbL-0950_LatLon0.15_PT150H.grib2 2026-04-24 16:32 1.2M
20260424T12Z_MSC_GDPS_AirTemp_IsbL-0970_LatLon0.15_PT150H.grib2 2026-04-24 16:32 1.2M
20260424T12Z_MSC_GDPS_AirTemp_IsbL-0985_LatLon0.15_PT150H.grib2 2026-04-24 16:32 1.2M
20260424T12Z_MSC_GDPS_AirTemp_IsbL-1000_LatLon0.15_PT150H.grib2 2026-04-24 16:32 1.1M
20260424T12Z_MSC_GDPS_AirTemp_IsbL-1015_LatLon0.15_PT150H.grib2 2026-04-24 16:32 1.1M
20260424T12Z_MSC_GDPS_Albedo_Sfc_LatLon0.15_PT150H.grib2 2026-04-24 16:32 246K
20260424T12Z_MSC_GDPS_CAPE_Sfc_LatLon0.15_PT150H.grib2 2026-04-24 16:32 3.7M
20260424T12Z_MSC_GDPS_CIN_Sfc_LatLon0.15_PT150H.grib2 2026-04-24 16:32 2.9M
20260424T12Z_MSC_GDPS_CloudWater_EAtm_LatLon0.15_PT150H.grib2 2026-04-24 16:32 538K
20260424T12Z_MSC_GDPS_ConvectivePrecip-Accum_Sfc_LatLon0.15_PT150H.grib2 2026-04-24 16:32 3.7M
20260424T12Z_MSC_GDPS_DewPointDepression_AGL-2m_LatLon0.15_PT150H.grib2 2026-04-24 16:32 765K
20260424T12Z_MSC_GDPS_DewPointDepression_IsbL-0010_LatLon0.15_PT150H.grib2 2026-04-24 16:32 68K
20260424T12Z_MSC_GDPS_DewPointDepression_IsbL-0020_LatLon0.15_PT150H.grib2 2026-04-24 16:32 80K
20260424T12Z_MSC_GDPS_DewPointDepression_IsbL-0030_LatLon0.15_PT150H.grib2 2026-04-24 16:32 66K
20260424T12Z_MSC_GDPS_DewPointDepression_IsbL-0050_LatLon0.15_PT150H.grib2 2026-04-24 16:32 363K
20260424T12Z_MSC_GDPS_DewPointDepression_IsbL-0100_LatLon0.15_PT150H.grib2 2026-04-24 16:32 401K
20260424T12Z_MSC_GDPS_DewPointDepression_IsbL-0150_LatLon0.15_PT150H.grib2 2026-04-24 16:32 452K
20260424T12Z_MSC_GDPS_DewPointDepression_IsbL-0175_LatLon0.15_PT150H.grib2 2026-04-24 16:32 556K
20260424T12Z_MSC_GDPS_DewPointDepression_IsbL-0200_LatLon0.15_PT150H.grib2 2026-04-24 16:32 678K
20260424T12Z_MSC_GDPS_DewPointDepression_IsbL-0225_LatLon0.15_PT150H.grib2 2026-04-24 16:32 792K
20260424T12Z_MSC_GDPS_DewPointDepression_IsbL-0250_LatLon0.15_PT150H.grib2 2026-04-24 16:32 868K
20260424T12Z_MSC_GDPS_DewPointDepression_IsbL-0275_LatLon0.15_PT150H.grib2 2026-04-24 16:32 870K
20260424T12Z_MSC_GDPS_DewPointDepression_IsbL-0300_LatLon0.15_PT150H.grib2 2026-04-24 16:32 899K
20260424T12Z_MSC_GDPS_DewPointDepression_IsbL-0350_LatLon0.15_PT150H.grib2 2026-04-24 16:32 924K
20260424T12Z_MSC_GDPS_DewPointDepression_IsbL-0400_LatLon0.15_PT150H.grib2 2026-04-24 16:32 957K
20260424T12Z_MSC_GDPS_DewPointDepression_IsbL-0450_LatLon0.15_PT150H.grib2 2026-04-24 16:32 1.0M
20260424T12Z_MSC_GDPS_DewPointDepression_IsbL-0500_LatLon0.15_PT150H.grib2 2026-04-24 16:32 1.0M
20260424T12Z_MSC_GDPS_DewPointDepression_IsbL-0550_LatLon0.15_PT150H.grib2 2026-04-24 16:32 1.0M
20260424T12Z_MSC_GDPS_DewPointDepression_IsbL-0600_LatLon0.15_PT150H.grib2 2026-04-24 16:32 1.0M
20260424T12Z_MSC_GDPS_DewPointDepression_IsbL-0650_LatLon0.15_PT150H.grib2 2026-04-24 16:32 1.1M
20260424T12Z_MSC_GDPS_DewPointDepression_IsbL-0700_LatLon0.15_PT150H.grib2 2026-04-24 16:32 1.1M
20260424T12Z_MSC_GDPS_DewPointDepression_IsbL-0750_LatLon0.15_PT150H.grib2 2026-04-24 16:32 1.1M
20260424T12Z_MSC_GDPS_DewPointDepression_IsbL-0800_LatLon0.15_PT150H.grib2 2026-04-24 16:32 1.2M
20260424T12Z_MSC_GDPS_DewPointDepression_IsbL-0850_LatLon0.15_PT150H.grib2 2026-04-24 16:32 1.2M
20260424T12Z_MSC_GDPS_DewPointDepression_IsbL-0875_LatLon0.15_PT150H.grib2 2026-04-24 16:32 1.1M
20260424T12Z_MSC_GDPS_DewPointDepression_IsbL-0900_LatLon0.15_PT150H.grib2 2026-04-24 16:32 1.1M
20260424T12Z_MSC_GDPS_DewPointDepression_IsbL-0925_LatLon0.15_PT150H.grib2 2026-04-24 16:32 1.0M
20260424T12Z_MSC_GDPS_DewPointDepression_IsbL-0950_LatLon0.15_PT150H.grib2 2026-04-24 16:32 1.0M
20260424T12Z_MSC_GDPS_DewPointDepression_IsbL-0970_LatLon0.15_PT150H.grib2 2026-04-24 16:32 1.0M
20260424T12Z_MSC_GDPS_DewPointDepression_IsbL-0985_LatLon0.15_PT150H.grib2 2026-04-24 16:32 1.0M
20260424T12Z_MSC_GDPS_DewPointDepression_IsbL-1000_LatLon0.15_PT150H.grib2 2026-04-24 16:32 1.0M
20260424T12Z_MSC_GDPS_DewPointDepression_IsbL-1015_LatLon0.15_PT150H.grib2 2026-04-24 16:32 920K
20260424T12Z_MSC_GDPS_DewPoint_AGL-2m_LatLon0.15_PT150H.grib2 2026-04-24 16:32 611K
20260424T12Z_MSC_GDPS_DownwardLongwaveRadiationFlux-Accum_Sfc_LatLon0.15_PT150H.grib2 2026-04-24 16:32 615K
20260424T12Z_MSC_GDPS_DownwardShortwaveRadiationFlux-Accum_NTAtm_LatLon0.15_PT150H.grib2 2026-04-24 16:32 194K
20260424T12Z_MSC_GDPS_DownwardShortwaveRadiationFlux-Accum_Sfc_LatLon0.15_PT150H.grib2 2026-04-24 16:32 1.1M
20260424T12Z_MSC_GDPS_FreezingRain-Accum12h_Sfc_LatLon0.15_PT150H.grib2 2026-04-24 16:32 126K
20260424T12Z_MSC_GDPS_FreezingRain-Accum24h_Sfc_LatLon0.15_PT150H.grib2 2026-04-24 16:32 182K
20260424T12Z_MSC_GDPS_FreezingRain-Accum3h_Sfc_LatLon0.15_PT150H.grib2 2026-04-24 16:32 58K
20260424T12Z_MSC_GDPS_FreezingRain-Accum6h_Sfc_LatLon0.15_PT150H.grib2 2026-04-24 16:32 106K
20260424T12Z_MSC_GDPS_FreezingRain-Accum_Sfc_LatLon0.15_PT150H.grib2 2026-04-24 16:32 502K
20260424T12Z_MSC_GDPS_GeopotentialHeight_IsbL-0001_LatLon0.15_PT150H.grib2 2026-04-24 16:32 382K
20260424T12Z_MSC_GDPS_GeopotentialHeight_IsbL-0005_LatLon0.15_PT150H.grib2 2026-04-24 16:32 493K
20260424T12Z_MSC_GDPS_GeopotentialHeight_IsbL-0010_LatLon0.15_PT150H.grib2 2026-04-24 16:32 475K
20260424T12Z_MSC_GDPS_GeopotentialHeight_IsbL-0020_LatLon0.15_PT150H.grib2 2026-04-24 16:32 410K
20260424T12Z_MSC_GDPS_GeopotentialHeight_IsbL-0030_LatLon0.15_PT150H.grib2 2026-04-24 16:32 415K
20260424T12Z_MSC_GDPS_GeopotentialHeight_IsbL-0050_LatLon0.15_PT150H.grib2 2026-04-24 16:32 569K
20260424T12Z_MSC_GDPS_GeopotentialHeight_IsbL-0100_LatLon0.15_PT150H.grib2 2026-04-24 16:32 609K
20260424T12Z_MSC_GDPS_GeopotentialHeight_IsbL-0150_LatLon0.15_PT150H.grib2 2026-04-24 16:32 474K
20260424T12Z_MSC_GDPS_GeopotentialHeight_IsbL-0175_LatLon0.15_PT150H.grib2 2026-04-24 16:32 478K
20260424T12Z_MSC_GDPS_GeopotentialHeight_IsbL-0200_LatLon0.15_PT150H.grib2 2026-04-24 16:32 482K
20260424T12Z_MSC_GDPS_GeopotentialHeight_IsbL-0225_LatLon0.15_PT150H.grib2 2026-04-24 16:32 485K
20260424T12Z_MSC_GDPS_GeopotentialHeight_IsbL-0250_LatLon0.15_PT150H.grib2 2026-04-24 16:32 650K
20260424T12Z_MSC_GDPS_GeopotentialHeight_IsbL-0275_LatLon0.15_PT150H.grib2 2026-04-24 16:32 647K
20260424T12Z_MSC_GDPS_GeopotentialHeight_IsbL-0300_LatLon0.15_PT150H.grib2 2026-04-24 16:32 639K
20260424T12Z_MSC_GDPS_GeopotentialHeight_IsbL-0350_LatLon0.15_PT150H.grib2 2026-04-24 16:32 636K
20260424T12Z_MSC_GDPS_GeopotentialHeight_IsbL-0400_LatLon0.15_PT150H.grib2 2026-04-24 16:32 627K
20260424T12Z_MSC_GDPS_GeopotentialHeight_IsbL-0450_LatLon0.15_PT150H.grib2 2026-04-24 16:32 617K
20260424T12Z_MSC_GDPS_GeopotentialHeight_IsbL-0500_LatLon0.15_PT150H.grib2 2026-04-24 16:32 607K
20260424T12Z_MSC_GDPS_GeopotentialHeight_IsbL-0550_LatLon0.15_PT150H.grib2 2026-04-24 16:32 531K
20260424T12Z_MSC_GDPS_GeopotentialHeight_IsbL-0600_LatLon0.15_PT150H.grib2 2026-04-24 16:32 524K
20260424T12Z_MSC_GDPS_GeopotentialHeight_IsbL-0650_LatLon0.15_PT150H.grib2 2026-04-24 16:32 691K
20260424T12Z_MSC_GDPS_GeopotentialHeight_IsbL-0700_LatLon0.15_PT150H.grib2 2026-04-24 16:32 688K
20260424T12Z_MSC_GDPS_GeopotentialHeight_IsbL-0750_LatLon0.15_PT150H.grib2 2026-04-24 16:32 693K
20260424T12Z_MSC_GDPS_GeopotentialHeight_IsbL-0800_LatLon0.15_PT150H.grib2 2026-04-24 16:32 707K
20260424T12Z_MSC_GDPS_GeopotentialHeight_IsbL-0850_LatLon0.15_PT150H.grib2 2026-04-24 16:32 712K
20260424T12Z_MSC_GDPS_GeopotentialHeight_IsbL-0875_LatLon0.15_PT150H.grib2 2026-04-24 16:32 721K
20260424T12Z_MSC_GDPS_GeopotentialHeight_IsbL-0900_LatLon0.15_PT150H.grib2 2026-04-24 16:32 725K
20260424T12Z_MSC_GDPS_GeopotentialHeight_IsbL-0925_LatLon0.15_PT150H.grib2 2026-04-24 16:32 732K
20260424T12Z_MSC_GDPS_GeopotentialHeight_IsbL-0950_LatLon0.15_PT150H.grib2 2026-04-24 16:32 741K
20260424T12Z_MSC_GDPS_GeopotentialHeight_IsbL-0970_LatLon0.15_PT150H.grib2 2026-04-24 16:32 754K
20260424T12Z_MSC_GDPS_GeopotentialHeight_IsbL-0985_LatLon0.15_PT150H.grib2 2026-04-24 16:32 770K
20260424T12Z_MSC_GDPS_GeopotentialHeight_IsbL-1000_LatLon0.15_PT150H.grib2 2026-04-24 16:32 792K
20260424T12Z_MSC_GDPS_GeopotentialHeight_IsbL-1015_LatLon0.15_PT150H.grib2 2026-04-24 16:32 816K
20260424T12Z_MSC_GDPS_Humidex_Sfc_LatLon0.15_PT150H.grib2 2026-04-24 16:32 5.3M
20260424T12Z_MSC_GDPS_IcePellets-Accum12h_Sfc_LatLon0.15_PT150H.grib2 2026-04-24 16:32 15K
20260424T12Z_MSC_GDPS_IcePellets-Accum24h_Sfc_LatLon0.15_PT150H.grib2 2026-04-24 16:32 35K
20260424T12Z_MSC_GDPS_IcePellets-Accum3h_Sfc_LatLon0.15_PT150H.grib2 2026-04-24 16:32 10K
20260424T12Z_MSC_GDPS_IcePellets-Accum6h_Sfc_LatLon0.15_PT150H.grib2 2026-04-24 16:32 12K
20260424T12Z_MSC_GDPS_IcePellets-Accum_Sfc_LatLon0.15_PT150H.grib2 2026-04-24 16:32 170K
20260424T12Z_MSC_GDPS_KIndex_Sfc_LatLon0.15_PT150H.grib2 2026-04-24 16:32 6.5M
20260424T12Z_MSC_GDPS_LatentHeatNetFlux_Sfc_LatLon0.15_PT150H.grib2 2026-04-24 16:32 518K
20260424T12Z_MSC_GDPS_LiftedIndex-MU-VT_IsbL-0500_LatLon0.15_PT150H.grib2 2026-04-24 16:32 5.4M
20260424T12Z_MSC_GDPS_NetLongwaveRadiationFlux-Accum_Sfc_LatLon0.15_PT150H.grib2 2026-04-24 16:32 1.1M
20260424T12Z_MSC_GDPS_NetShortwaveRadiationFlux-Accum_Sfc_LatLon0.15_PT150H.grib2 2026-04-24 16:32 1.0M
20260424T12Z_MSC_GDPS_O3MixingRatio_LatLon0.15_PT150H.grib2 2026-04-24 16:51 1.9M
20260424T12Z_MSC_GDPS_O3_EAtm_LatLon0.15_PT150H.grib2 2026-04-24 16:51 2.4M
20260424T12Z_MSC_GDPS_PlanetaryBoundaryLayerHeight_Sfc_LatLon0.15_PT150H.grib2 2026-04-24 16:32 2.4M
20260424T12Z_MSC_GDPS_Precip-Accum12h_Sfc_LatLon0.15_PT150H.grib2 2026-04-24 16:32 4.1M
20260424T12Z_MSC_GDPS_Precip-Accum24h_Sfc_LatLon0.15_PT150H.grib2 2026-04-24 16:32 4.6M
20260424T12Z_MSC_GDPS_Precip-Accum3h_Sfc_LatLon0.15_PT150H.grib2 2026-04-24 16:32 3.5M
20260424T12Z_MSC_GDPS_Precip-Accum6h_Sfc_LatLon0.15_PT150H.grib2 2026-04-24 16:32 3.6M
20260424T12Z_MSC_GDPS_Precip-Accum_Sfc_LatLon0.15_PT150H.grib2 2026-04-24 16:32 5.3M
20260424T12Z_MSC_GDPS_PrecipRate_Sfc_LatLon0.15_PT150H.grib2 2026-04-24 16:32 3.0M
20260424T12Z_MSC_GDPS_PrecipType-Instant_Sfc_LatLon0.15_PT150H.grib2 2026-04-24 16:32 1.6M
20260424T12Z_MSC_GDPS_Pressure_MSL_LatLon0.15_PT150H.grib2 2026-04-24 16:32 728K
20260424T12Z_MSC_GDPS_Pressure_PVU-1.5_LatLon0.15_PT150H.grib2 2026-04-24 16:32 5.8M
20260424T12Z_MSC_GDPS_Pressure_PVU-1_LatLon0.15_PT150H.grib2 2026-04-24 16:32 6.0M
20260424T12Z_MSC_GDPS_Pressure_PVU-2_LatLon0.15_PT150H.grib2 2026-04-24 16:32 6.0M
20260424T12Z_MSC_GDPS_Pressure_Sfc_LatLon0.15_PT150H.grib2 2026-04-24 16:32 1.1M
20260424T12Z_MSC_GDPS_RadiativeTemp_Sfc_LatLon0.15_PT150H.grib2 2026-04-24 16:32 494K
20260424T12Z_MSC_GDPS_Rain-Accum12h_Sfc_LatLon0.15_PT150H.grib2 2026-04-24 16:32 2.7M
20260424T12Z_MSC_GDPS_Rain-Accum24h_Sfc_LatLon0.15_PT150H.grib2 2026-04-24 16:32 3.2M
20260424T12Z_MSC_GDPS_Rain-Accum3h_Sfc_LatLon0.15_PT150H.grib2 2026-04-24 16:32 1.7M
20260424T12Z_MSC_GDPS_Rain-Accum6h_Sfc_LatLon0.15_PT150H.grib2 2026-04-24 16:32 2.3M
20260424T12Z_MSC_GDPS_Rain-Accum_Sfc_LatLon0.15_PT150H.grib2 2026-04-24 16:32 4.1M
20260424T12Z_MSC_GDPS_RelativeHumidity_AGL-2m_LatLon0.15_PT150H.grib2 2026-04-24 16:32 1.1M
20260424T12Z_MSC_GDPS_RelativeHumidity_IsbL-0010_LatLon0.15_PT150H.grib2 2026-04-24 16:32 252K
20260424T12Z_MSC_GDPS_RelativeHumidity_IsbL-0020_LatLon0.15_PT150H.grib2 2026-04-24 16:32 213K
20260424T12Z_MSC_GDPS_RelativeHumidity_IsbL-0030_LatLon0.15_PT150H.grib2 2026-04-24 16:32 255K
20260424T12Z_MSC_GDPS_RelativeHumidity_IsbL-0050_LatLon0.15_PT150H.grib2 2026-04-24 16:32 500K
20260424T12Z_MSC_GDPS_RelativeHumidity_IsbL-0100_LatLon0.15_PT150H.grib2 2026-04-24 16:32 493K
20260424T12Z_MSC_GDPS_RelativeHumidity_IsbL-0150_LatLon0.15_PT150H.grib2 2026-04-24 16:32 650K
20260424T12Z_MSC_GDPS_RelativeHumidity_IsbL-0175_LatLon0.15_PT150H.grib2 2026-04-24 16:32 779K
20260424T12Z_MSC_GDPS_RelativeHumidity_IsbL-0200_LatLon0.15_PT150H.grib2 2026-04-24 16:32 700K
20260424T12Z_MSC_GDPS_RelativeHumidity_IsbL-0225_LatLon0.15_PT150H.grib2 2026-04-24 16:32 791K
20260424T12Z_MSC_GDPS_RelativeHumidity_IsbL-0250_LatLon0.15_PT150H.grib2 2026-04-24 16:32 869K
20260424T12Z_MSC_GDPS_RelativeHumidity_IsbL-0275_LatLon0.15_PT150H.grib2 2026-04-24 16:32 887K
20260424T12Z_MSC_GDPS_RelativeHumidity_IsbL-0300_LatLon0.15_PT150H.grib2 2026-04-24 16:32 922K
20260424T12Z_MSC_GDPS_RelativeHumidity_IsbL-0350_LatLon0.15_PT150H.grib2 2026-04-24 16:32 939K
20260424T12Z_MSC_GDPS_RelativeHumidity_IsbL-0400_LatLon0.15_PT150H.grib2 2026-04-24 16:32 960K
20260424T12Z_MSC_GDPS_RelativeHumidity_IsbL-0450_LatLon0.15_PT150H.grib2 2026-04-24 16:32 1.0M
20260424T12Z_MSC_GDPS_RelativeHumidity_IsbL-0500_LatLon0.15_PT150H.grib2 2026-04-24 16:32 1.0M
20260424T12Z_MSC_GDPS_RelativeHumidity_IsbL-0550_LatLon0.15_PT150H.grib2 2026-04-24 16:32 1.0M
20260424T12Z_MSC_GDPS_RelativeHumidity_IsbL-0600_LatLon0.15_PT150H.grib2 2026-04-24 16:32 1.0M
20260424T12Z_MSC_GDPS_RelativeHumidity_IsbL-0650_LatLon0.15_PT150H.grib2 2026-04-24 16:32 1.1M
20260424T12Z_MSC_GDPS_RelativeHumidity_IsbL-0700_LatLon0.15_PT150H.grib2 2026-04-24 16:32 1.1M
20260424T12Z_MSC_GDPS_RelativeHumidity_IsbL-0750_LatLon0.15_PT150H.grib2 2026-04-24 16:32 1.2M
20260424T12Z_MSC_GDPS_RelativeHumidity_IsbL-0800_LatLon0.15_PT150H.grib2 2026-04-24 16:32 1.2M
20260424T12Z_MSC_GDPS_RelativeHumidity_IsbL-0850_LatLon0.15_PT150H.grib2 2026-04-24 16:32 1.3M
20260424T12Z_MSC_GDPS_RelativeHumidity_IsbL-0875_LatLon0.15_PT150H.grib2 2026-04-24 16:32 1.3M
20260424T12Z_MSC_GDPS_RelativeHumidity_IsbL-0900_LatLon0.15_PT150H.grib2 2026-04-24 16:32 1.2M
20260424T12Z_MSC_GDPS_RelativeHumidity_IsbL-0925_LatLon0.15_PT150H.grib2 2026-04-24 16:32 1.2M
20260424T12Z_MSC_GDPS_RelativeHumidity_IsbL-0950_LatLon0.15_PT150H.grib2 2026-04-24 16:32 1.2M
20260424T12Z_MSC_GDPS_RelativeHumidity_IsbL-0970_LatLon0.15_PT150H.grib2 2026-04-24 16:32 1.2M
20260424T12Z_MSC_GDPS_RelativeHumidity_IsbL-0985_LatLon0.15_PT150H.grib2 2026-04-24 16:32 1.2M
20260424T12Z_MSC_GDPS_RelativeHumidity_IsbL-1000_LatLon0.15_PT150H.grib2 2026-04-24 16:32 1.1M
20260424T12Z_MSC_GDPS_RelativeHumidity_IsbL-1015_LatLon0.15_PT150H.grib2 2026-04-24 16:32 1.1M
20260424T12Z_MSC_GDPS_RelativeVorticity_IsbL-0200_LatLon0.15_PT150H.grib2 2026-04-24 16:32 1.5M
20260424T12Z_MSC_GDPS_RelativeVorticity_IsbL-0250_LatLon0.15_PT150H.grib2 2026-04-24 16:32 1.3M
20260424T12Z_MSC_GDPS_RelativeVorticity_IsbL-0500_LatLon0.15_PT150H.grib2 2026-04-24 16:32 1.2M
20260424T12Z_MSC_GDPS_RelativeVorticity_IsbL-0700_LatLon0.15_PT150H.grib2 2026-04-24 16:32 1.6M
20260424T12Z_MSC_GDPS_RelativeVorticity_IsbL-0850_LatLon0.15_PT150H.grib2 2026-04-24 16:32 1.6M
20260424T12Z_MSC_GDPS_Runoff-Accum_Sfc_LatLon0.15_PT150H.grib2 2026-04-24 16:32 111K
20260424T12Z_MSC_GDPS_SensibleHeatNetFlux_Sfc_LatLon0.15_PT150H.grib2 2026-04-24 16:32 464K
20260424T12Z_MSC_GDPS_ShowalterIndex_IsbL-0500_LatLon0.15_PT150H.grib2 2026-04-24 16:32 6.2M
20260424T12Z_MSC_GDPS_Snow-Accum12h_Sfc_LatLon0.15_PT150H.grib2 2026-04-24 16:32 1.5M
20260424T12Z_MSC_GDPS_Snow-Accum24h_Sfc_LatLon0.15_PT150H.grib2 2026-04-24 16:32 1.6M
20260424T12Z_MSC_GDPS_Snow-Accum3h_Sfc_LatLon0.15_PT150H.grib2 2026-04-24 16:32 1.1M
20260424T12Z_MSC_GDPS_Snow-Accum6h_Sfc_LatLon0.15_PT150H.grib2 2026-04-24 16:32 1.4M
20260424T12Z_MSC_GDPS_Snow-Accum_Sfc_LatLon0.15_PT150H.grib2 2026-04-24 16:32 2.2M
20260424T12Z_MSC_GDPS_SnowDensity_Sfc_LatLon0.15_PT150H.grib2 2026-04-24 16:32 274K
20260424T12Z_MSC_GDPS_SnowDepth_Sfc_LatLon0.15_PT150H.grib2 2026-04-24 16:32 1.8M
20260424T12Z_MSC_GDPS_SoilTemp_DBS-0to10cm_LatLon0.15_PT150H.grib2 2026-04-24 16:32 512K
20260424T12Z_MSC_GDPS_SoilTemp_Sfc_LatLon0.15_PT150H.grib2 2026-04-24 16:32 581K
20260424T12Z_MSC_GDPS_SoilVolumetricIceContent_Sfc_LatLon0.15_PT150H.grib2 2026-04-24 16:32 208K
20260424T12Z_MSC_GDPS_SoilVolumetricWaterContent_DBS-0to10cm_LatLon0.15_PT150H.grib2 2026-04-24 16:32 583K
20260424T12Z_MSC_GDPS_SoilVolumetricWaterContent_DBS-0to1cm_LatLon0.15_PT150H.grib2 2026-04-24 16:32 649K
20260424T12Z_MSC_GDPS_SpecificHumidity_AGL-120m_LatLon0.15_PT150H.grib2 2026-04-24 16:32 1.1M
20260424T12Z_MSC_GDPS_SpecificHumidity_AGL-2m_LatLon0.15_PT150H.grib2 2026-04-24 16:32 1.2M
20260424T12Z_MSC_GDPS_SpecificHumidity_AGL-40m_LatLon0.15_PT150H.grib2 2026-04-24 16:32 1.1M
20260424T12Z_MSC_GDPS_SpecificHumidity_AGL-80m_LatLon0.15_PT150H.grib2 2026-04-24 16:32 1.1M
20260424T12Z_MSC_GDPS_SpecificHumidity_IsbL-0001_LatLon0.15_PT150H.grib2 2026-04-24 16:32 1.1M
20260424T12Z_MSC_GDPS_SpecificHumidity_IsbL-0005_LatLon0.15_PT150H.grib2 2026-04-24 16:32 1.4M
20260424T12Z_MSC_GDPS_SpecificHumidity_IsbL-0010_LatLon0.15_PT150H.grib2 2026-04-24 16:32 1.2M
20260424T12Z_MSC_GDPS_SpecificHumidity_IsbL-0020_LatLon0.15_PT150H.grib2 2026-04-24 16:32 1.2M
20260424T12Z_MSC_GDPS_SpecificHumidity_IsbL-0030_LatLon0.15_PT150H.grib2 2026-04-24 16:32 1.5M
20260424T12Z_MSC_GDPS_SpecificHumidity_IsbL-0050_LatLon0.15_PT150H.grib2 2026-04-24 16:32 1.3M
20260424T12Z_MSC_GDPS_SpecificHumidity_IsbL-0100_LatLon0.15_PT150H.grib2 2026-04-24 16:32 1.3M
20260424T12Z_MSC_GDPS_SpecificHumidity_IsbL-0150_LatLon0.15_PT150H.grib2 2026-04-24 16:32 1.3M
20260424T12Z_MSC_GDPS_SpecificHumidity_IsbL-0175_LatLon0.15_PT150H.grib2 2026-04-24 16:32 1.2M
20260424T12Z_MSC_GDPS_SpecificHumidity_IsbL-0200_LatLon0.15_PT150H.grib2 2026-04-24 16:32 1.3M
20260424T12Z_MSC_GDPS_SpecificHumidity_IsbL-0225_LatLon0.15_PT150H.grib2 2026-04-24 16:32 1.3M
20260424T12Z_MSC_GDPS_SpecificHumidity_IsbL-0250_LatLon0.15_PT150H.grib2 2026-04-24 16:32 1.5M
20260424T12Z_MSC_GDPS_SpecificHumidity_IsbL-0275_LatLon0.15_PT150H.grib2 2026-04-24 16:32 1.3M
20260424T12Z_MSC_GDPS_SpecificHumidity_IsbL-0300_LatLon0.15_PT150H.grib2 2026-04-24 16:32 1.2M
20260424T12Z_MSC_GDPS_SpecificHumidity_IsbL-0350_LatLon0.15_PT150H.grib2 2026-04-24 16:32 1.2M
20260424T12Z_MSC_GDPS_SpecificHumidity_IsbL-0400_LatLon0.15_PT150H.grib2 2026-04-24 16:32 1.4M
20260424T12Z_MSC_GDPS_SpecificHumidity_IsbL-0450_LatLon0.15_PT150H.grib2 2026-04-24 16:32 1.6M
20260424T12Z_MSC_GDPS_SpecificHumidity_IsbL-0500_LatLon0.15_PT150H.grib2 2026-04-24 16:32 1.4M
20260424T12Z_MSC_GDPS_SpecificHumidity_IsbL-0550_LatLon0.15_PT150H.grib2 2026-04-24 16:32 1.6M
20260424T12Z_MSC_GDPS_SpecificHumidity_IsbL-0600_LatLon0.15_PT150H.grib2 2026-04-24 16:32 1.7M
20260424T12Z_MSC_GDPS_SpecificHumidity_IsbL-0650_LatLon0.15_PT150H.grib2 2026-04-24 16:32 1.5M
20260424T12Z_MSC_GDPS_SpecificHumidity_IsbL-0700_LatLon0.15_PT150H.grib2 2026-04-24 16:32 1.6M
20260424T12Z_MSC_GDPS_SpecificHumidity_IsbL-0750_LatLon0.15_PT150H.grib2 2026-04-24 16:32 1.7M
20260424T12Z_MSC_GDPS_SpecificHumidity_IsbL-0800_LatLon0.15_PT150H.grib2 2026-04-24 16:32 1.9M
20260424T12Z_MSC_GDPS_SpecificHumidity_IsbL-0850_LatLon0.15_PT150H.grib2 2026-04-24 16:32 1.9M
20260424T12Z_MSC_GDPS_SpecificHumidity_IsbL-0875_LatLon0.15_PT150H.grib2 2026-04-24 16:32 1.9M
20260424T12Z_MSC_GDPS_SpecificHumidity_IsbL-0900_LatLon0.15_PT150H.grib2 2026-04-24 16:32 1.9M
20260424T12Z_MSC_GDPS_SpecificHumidity_IsbL-0925_LatLon0.15_PT150H.grib2 2026-04-24 16:32 1.9M
20260424T12Z_MSC_GDPS_SpecificHumidity_IsbL-0950_LatLon0.15_PT150H.grib2 2026-04-24 16:32 1.6M
20260424T12Z_MSC_GDPS_SpecificHumidity_IsbL-0970_LatLon0.15_PT150H.grib2 2026-04-24 16:32 1.5M
20260424T12Z_MSC_GDPS_SpecificHumidity_IsbL-0985_LatLon0.15_PT150H.grib2 2026-04-24 16:32 1.5M
20260424T12Z_MSC_GDPS_SpecificHumidity_IsbL-1000_LatLon0.15_PT150H.grib2 2026-04-24 16:32 1.5M
20260424T12Z_MSC_GDPS_SpecificHumidity_IsbL-1015_LatLon0.15_PT150H.grib2 2026-04-24 16:32 1.4M
20260424T12Z_MSC_GDPS_SpecificHumidity_Sfc_LatLon0.15_PT150H.grib2 2026-04-24 16:32 665K
20260424T12Z_MSC_GDPS_Thickness_IsbL-0850to0700_LatLon0.15_PT150H.grib2 2026-04-24 16:32 469K
20260424T12Z_MSC_GDPS_Thickness_IsbL-1000to0500_LatLon0.15_PT150H.grib2 2026-04-24 16:32 375K
20260424T12Z_MSC_GDPS_Thickness_IsbL-1000to0850_LatLon0.15_PT150H.grib2 2026-04-24 16:32 489K
20260424T12Z_MSC_GDPS_TotalCloudCover_Sfc_LatLon0.15_PT150H.grib2 2026-04-24 16:32 836K
20260424T12Z_MSC_GDPS_TotalTotalsIndex_Sfc_LatLon0.15_PT150H.grib2 2026-04-24 16:32 6.2M
20260424T12Z_MSC_GDPS_UVIndex-ClearSky-Max24h_Sfc_LatLon0.15_PT150H.grib2 2026-04-24 16:51 2.2M
20260424T12Z_MSC_GDPS_UVIndex-ClearSky_Sfc_LatLon0.15_PT150H.grib2 2026-04-24 16:51 1.0M
20260424T12Z_MSC_GDPS_UVIndex-Max24h_Sfc_LatLon0.15_PT150H.grib2 2026-04-24 16:51 3.2M
20260424T12Z_MSC_GDPS_UVIndex_Sfc_LatLon0.15_PT150H.grib2 2026-04-24 16:51 1.5M
20260424T12Z_MSC_GDPS_UpwardLongwaveRadiationFlux_NTAtm_LatLon0.15_PT150H.grib2 2026-04-24 16:32 844K
20260424T12Z_MSC_GDPS_VerticalVelocity_IsbL-0200_LatLon0.15_PT150H.grib2 2026-04-24 16:32 944K
20260424T12Z_MSC_GDPS_VerticalVelocity_IsbL-0250_LatLon0.15_PT150H.grib2 2026-04-24 16:32 1.0M
20260424T12Z_MSC_GDPS_VerticalVelocity_IsbL-0500_LatLon0.15_PT150H.grib2 2026-04-24 16:32 1.3M
20260424T12Z_MSC_GDPS_VerticalVelocity_IsbL-0600_LatLon0.15_PT150H.grib2 2026-04-24 16:32 1.1M
20260424T12Z_MSC_GDPS_VerticalVelocity_IsbL-0700_LatLon0.15_PT150H.grib2 2026-04-24 16:32 1.1M
20260424T12Z_MSC_GDPS_VerticalVelocity_IsbL-0850_LatLon0.15_PT150H.grib2 2026-04-24 16:32 1.6M
20260424T12Z_MSC_GDPS_WindChill_Sfc_LatLon0.15_PT150H.grib2 2026-04-24 16:32 5.3M
20260424T12Z_MSC_GDPS_WindDir_AGL-10m_LatLon0.15_PT150H.grib2 2026-04-24 16:32 1.3M
20260424T12Z_MSC_GDPS_WindDir_AGL-120m_LatLon0.15_PT150H.grib2 2026-04-24 16:32 1.4M
20260424T12Z_MSC_GDPS_WindDir_AGL-40m_LatLon0.15_PT150H.grib2 2026-04-24 16:32 1.4M
20260424T12Z_MSC_GDPS_WindDir_AGL-80m_LatLon0.15_PT150H.grib2 2026-04-24 16:32 1.4M
20260424T12Z_MSC_GDPS_WindDir_IsbL-0001_LatLon0.15_PT150H.grib2 2026-04-24 16:32 678K
20260424T12Z_MSC_GDPS_WindDir_IsbL-0005_LatLon0.15_PT150H.grib2 2026-04-24 16:32 789K
20260424T12Z_MSC_GDPS_WindDir_IsbL-0010_LatLon0.15_PT150H.grib2 2026-04-24 16:32 826K
20260424T12Z_MSC_GDPS_WindDir_IsbL-0020_LatLon0.15_PT150H.grib2 2026-04-24 16:32 922K
20260424T12Z_MSC_GDPS_WindDir_IsbL-0030_LatLon0.15_PT150H.grib2 2026-04-24 16:32 907K
20260424T12Z_MSC_GDPS_WindDir_IsbL-0050_LatLon0.15_PT150H.grib2 2026-04-24 16:32 944K
20260424T12Z_MSC_GDPS_WindDir_IsbL-0100_LatLon0.15_PT150H.grib2 2026-04-24 16:32 1.0M
20260424T12Z_MSC_GDPS_WindDir_IsbL-0150_LatLon0.15_PT150H.grib2 2026-04-24 16:32 1.0M
20260424T12Z_MSC_GDPS_WindDir_IsbL-0175_LatLon0.15_PT150H.grib2 2026-04-24 16:32 1.0M
20260424T12Z_MSC_GDPS_WindDir_IsbL-0200_LatLon0.15_PT150H.grib2 2026-04-24 16:32 1.1M
20260424T12Z_MSC_GDPS_WindDir_IsbL-0225_LatLon0.15_PT150H.grib2 2026-04-24 16:32 1.1M
20260424T12Z_MSC_GDPS_WindDir_IsbL-0250_LatLon0.15_PT150H.grib2 2026-04-24 16:32 1.1M
20260424T12Z_MSC_GDPS_WindDir_IsbL-0275_LatLon0.15_PT150H.grib2 2026-04-24 16:32 1.2M
20260424T12Z_MSC_GDPS_WindDir_IsbL-0300_LatLon0.15_PT150H.grib2 2026-04-24 16:32 1.2M
20260424T12Z_MSC_GDPS_WindDir_IsbL-0350_LatLon0.15_PT150H.grib2 2026-04-24 16:32 1.2M
20260424T12Z_MSC_GDPS_WindDir_IsbL-0400_LatLon0.15_PT150H.grib2 2026-04-24 16:32 1.2M
20260424T12Z_MSC_GDPS_WindDir_IsbL-0450_LatLon0.15_PT150H.grib2 2026-04-24 16:32 1.3M
20260424T12Z_MSC_GDPS_WindDir_IsbL-0500_LatLon0.15_PT150H.grib2 2026-04-24 16:32 1.3M
20260424T12Z_MSC_GDPS_WindDir_IsbL-0550_LatLon0.15_PT150H.grib2 2026-04-24 16:32 1.4M
20260424T12Z_MSC_GDPS_WindDir_IsbL-0600_LatLon0.15_PT150H.grib2 2026-04-24 16:32 1.4M
20260424T12Z_MSC_GDPS_WindDir_IsbL-0650_LatLon0.15_PT150H.grib2 2026-04-24 16:32 1.5M
20260424T12Z_MSC_GDPS_WindDir_IsbL-0700_LatLon0.15_PT150H.grib2 2026-04-24 16:32 1.6M
20260424T12Z_MSC_GDPS_WindDir_IsbL-0750_LatLon0.15_PT150H.grib2 2026-04-24 16:32 1.7M
20260424T12Z_MSC_GDPS_WindDir_IsbL-0800_LatLon0.15_PT150H.grib2 2026-04-24 16:32 1.8M
20260424T12Z_MSC_GDPS_WindDir_IsbL-0850_LatLon0.15_PT150H.grib2 2026-04-24 16:32 1.9M
20260424T12Z_MSC_GDPS_WindDir_IsbL-0875_LatLon0.15_PT150H.grib2 2026-04-24 16:32 2.0M
20260424T12Z_MSC_GDPS_WindDir_IsbL-0900_LatLon0.15_PT150H.grib2 2026-04-24 16:32 2.0M
20260424T12Z_MSC_GDPS_WindDir_IsbL-0925_LatLon0.15_PT150H.grib2 2026-04-24 16:32 2.0M
20260424T12Z_MSC_GDPS_WindDir_IsbL-0950_LatLon0.15_PT150H.grib2 2026-04-24 16:32 2.0M
20260424T12Z_MSC_GDPS_WindDir_IsbL-0970_LatLon0.15_PT150H.grib2 2026-04-24 16:32 2.0M
20260424T12Z_MSC_GDPS_WindDir_IsbL-0985_LatLon0.15_PT150H.grib2 2026-04-24 16:32 2.0M
20260424T12Z_MSC_GDPS_WindDir_IsbL-1000_LatLon0.15_PT150H.grib2 2026-04-24 16:32 2.1M
20260424T12Z_MSC_GDPS_WindDir_IsbL-1015_LatLon0.15_PT150H.grib2 2026-04-24 16:32 2.1M
20260424T12Z_MSC_GDPS_WindGust-Max_AGL-10m_LatLon0.15_PT150H.grib2 2026-04-24 16:32 2.3M
20260424T12Z_MSC_GDPS_WindGust-Min_AGL-10m_LatLon0.15_PT150H.grib2 2026-04-24 16:32 2.2M
20260424T12Z_MSC_GDPS_WindGust_AGL-10m_LatLon0.15_PT150H.grib2 2026-04-24 16:32 2.2M
20260424T12Z_MSC_GDPS_WindSpeed_AGL-10m_LatLon0.15_PT150H.grib2 2026-04-24 16:32 1.1M
20260424T12Z_MSC_GDPS_WindSpeed_AGL-120m_LatLon0.15_PT150H.grib2 2026-04-24 16:32 1.3M
20260424T12Z_MSC_GDPS_WindSpeed_AGL-40m_LatLon0.15_PT150H.grib2 2026-04-24 16:32 1.2M
20260424T12Z_MSC_GDPS_WindSpeed_AGL-80m_LatLon0.15_PT150H.grib2 2026-04-24 16:32 1.2M
20260424T12Z_MSC_GDPS_WindSpeed_IsbL-0001_LatLon0.15_PT150H.grib2 2026-04-24 16:32 639K
20260424T12Z_MSC_GDPS_WindSpeed_IsbL-0005_LatLon0.15_PT150H.grib2 2026-04-24 16:32 605K
20260424T12Z_MSC_GDPS_WindSpeed_IsbL-0010_LatLon0.15_PT150H.grib2 2026-04-24 16:32 618K
20260424T12Z_MSC_GDPS_WindSpeed_IsbL-0020_LatLon0.15_PT150H.grib2 2026-04-24 16:32 846K
20260424T12Z_MSC_GDPS_WindSpeed_IsbL-0030_LatLon0.15_PT150H.grib2 2026-04-24 16:32 848K
20260424T12Z_MSC_GDPS_WindSpeed_IsbL-0050_LatLon0.15_PT150H.grib2 2026-04-24 16:32 1.0M
20260424T12Z_MSC_GDPS_WindSpeed_IsbL-0100_LatLon0.15_PT150H.grib2 2026-04-24 16:32 1.1M
20260424T12Z_MSC_GDPS_WindSpeed_IsbL-0150_LatLon0.15_PT150H.grib2 2026-04-24 16:32 1.0M
20260424T12Z_MSC_GDPS_WindSpeed_IsbL-0175_LatLon0.15_PT150H.grib2 2026-04-24 16:32 1.0M
20260424T12Z_MSC_GDPS_WindSpeed_IsbL-0200_LatLon0.15_PT150H.grib2 2026-04-24 16:32 1.1M
20260424T12Z_MSC_GDPS_WindSpeed_IsbL-0225_LatLon0.15_PT150H.grib2 2026-04-24 16:32 1.1M
20260424T12Z_MSC_GDPS_WindSpeed_IsbL-0250_LatLon0.15_PT150H.grib2 2026-04-24 16:32 1.1M
20260424T12Z_MSC_GDPS_WindSpeed_IsbL-0275_LatLon0.15_PT150H.grib2 2026-04-24 16:32 1.1M
20260424T12Z_MSC_GDPS_WindSpeed_IsbL-0300_LatLon0.15_PT150H.grib2 2026-04-24 16:32 1.1M
20260424T12Z_MSC_GDPS_WindSpeed_IsbL-0350_LatLon0.15_PT150H.grib2 2026-04-24 16:32 1.1M
20260424T12Z_MSC_GDPS_WindSpeed_IsbL-0400_LatLon0.15_PT150H.grib2 2026-04-24 16:32 1.1M
20260424T12Z_MSC_GDPS_WindSpeed_IsbL-0450_LatLon0.15_PT150H.grib2 2026-04-24 16:32 1.1M
20260424T12Z_MSC_GDPS_WindSpeed_IsbL-0500_LatLon0.15_PT150H.grib2 2026-04-24 16:32 1.1M
20260424T12Z_MSC_GDPS_WindSpeed_IsbL-0550_LatLon0.15_PT150H.grib2 2026-04-24 16:32 1.1M
20260424T12Z_MSC_GDPS_WindSpeed_IsbL-0600_LatLon0.15_PT150H.grib2 2026-04-24 16:32 1.1M
20260424T12Z_MSC_GDPS_WindSpeed_IsbL-0650_LatLon0.15_PT150H.grib2 2026-04-24 16:32 1.4M
20260424T12Z_MSC_GDPS_WindSpeed_IsbL-0700_LatLon0.15_PT150H.grib2 2026-04-24 16:32 1.5M
20260424T12Z_MSC_GDPS_WindSpeed_IsbL-0750_LatLon0.15_PT150H.grib2 2026-04-24 16:32 1.6M
20260424T12Z_MSC_GDPS_WindSpeed_IsbL-0800_LatLon0.15_PT150H.grib2 2026-04-24 16:32 1.8M
20260424T12Z_MSC_GDPS_WindSpeed_IsbL-0850_LatLon0.15_PT150H.grib2 2026-04-24 16:32 1.9M
20260424T12Z_MSC_GDPS_WindSpeed_IsbL-0875_LatLon0.15_PT150H.grib2 2026-04-24 16:32 1.9M
20260424T12Z_MSC_GDPS_WindSpeed_IsbL-0900_LatLon0.15_PT150H.grib2 2026-04-24 16:32 1.9M
20260424T12Z_MSC_GDPS_WindSpeed_IsbL-0925_LatLon0.15_PT150H.grib2 2026-04-24 16:32 1.9M
20260424T12Z_MSC_GDPS_WindSpeed_IsbL-0950_LatLon0.15_PT150H.grib2 2026-04-24 16:32 1.9M
20260424T12Z_MSC_GDPS_WindSpeed_IsbL-0970_LatLon0.15_PT150H.grib2 2026-04-24 16:32 1.9M
20260424T12Z_MSC_GDPS_WindSpeed_IsbL-0985_LatLon0.15_PT150H.grib2 2026-04-24 16:32 1.9M
20260424T12Z_MSC_GDPS_WindSpeed_IsbL-1000_LatLon0.15_PT150H.grib2 2026-04-24 16:32 1.9M
20260424T12Z_MSC_GDPS_WindSpeed_IsbL-1015_LatLon0.15_PT150H.grib2 2026-04-24 16:32 1.8M
20260424T12Z_MSC_GDPS_WindU_AGL-10m_LatLon0.15_PT150H.grib2 2026-04-24 16:32 1.3M
20260424T12Z_MSC_GDPS_WindU_AGL-120m_LatLon0.15_PT150H.grib2 2026-04-24 16:32 1.0M
20260424T12Z_MSC_GDPS_WindU_AGL-40m_LatLon0.15_PT150H.grib2 2026-04-24 16:32 1.0M
20260424T12Z_MSC_GDPS_WindU_AGL-80m_LatLon0.15_PT150H.grib2 2026-04-24 16:32 1.0M
20260424T12Z_MSC_GDPS_WindU_IsbL-0001_LatLon0.15_PT150H.grib2 2026-04-24 16:32 642K
20260424T12Z_MSC_GDPS_WindU_IsbL-0005_LatLon0.15_PT150H.grib2 2026-04-24 16:32 686K
20260424T12Z_MSC_GDPS_WindU_IsbL-0010_LatLon0.15_PT150H.grib2 2026-04-24 16:32 696K
20260424T12Z_MSC_GDPS_WindU_IsbL-0020_LatLon0.15_PT150H.grib2 2026-04-24 16:32 725K
20260424T12Z_MSC_GDPS_WindU_IsbL-0030_LatLon0.15_PT150H.grib2 2026-04-24 16:32 729K
20260424T12Z_MSC_GDPS_WindU_IsbL-0050_LatLon0.15_PT150H.grib2 2026-04-24 16:32 688K
20260424T12Z_MSC_GDPS_WindU_IsbL-0100_LatLon0.15_PT150H.grib2 2026-04-24 16:32 919K
20260424T12Z_MSC_GDPS_WindU_IsbL-0150_LatLon0.15_PT150H.grib2 2026-04-24 16:32 1.0M
20260424T12Z_MSC_GDPS_WindU_IsbL-0175_LatLon0.15_PT150H.grib2 2026-04-24 16:32 1.0M
20260424T12Z_MSC_GDPS_WindU_IsbL-0200_LatLon0.15_PT150H.grib2 2026-04-24 16:32 850K
20260424T12Z_MSC_GDPS_WindU_IsbL-0225_LatLon0.15_PT150H.grib2 2026-04-24 16:32 858K
20260424T12Z_MSC_GDPS_WindU_IsbL-0250_LatLon0.15_PT150H.grib2 2026-04-24 16:32 858K
20260424T12Z_MSC_GDPS_WindU_IsbL-0275_LatLon0.15_PT150H.grib2 2026-04-24 16:32 882K
20260424T12Z_MSC_GDPS_WindU_IsbL-0300_LatLon0.15_PT150H.grib2 2026-04-24 16:32 870K
20260424T12Z_MSC_GDPS_WindU_IsbL-0350_LatLon0.15_PT150H.grib2 2026-04-24 16:32 883K
20260424T12Z_MSC_GDPS_WindU_IsbL-0400_LatLon0.15_PT150H.grib2 2026-04-24 16:32 886K
20260424T12Z_MSC_GDPS_WindU_IsbL-0450_LatLon0.15_PT150H.grib2 2026-04-24 16:32 888K
20260424T12Z_MSC_GDPS_WindU_IsbL-0500_LatLon0.15_PT150H.grib2 2026-04-24 16:32 1.1M
20260424T12Z_MSC_GDPS_WindU_IsbL-0550_LatLon0.15_PT150H.grib2 2026-04-24 16:32 1.1M
20260424T12Z_MSC_GDPS_WindU_IsbL-0600_LatLon0.15_PT150H.grib2 2026-04-24 16:32 1.1M
20260424T12Z_MSC_GDPS_WindU_IsbL-0650_LatLon0.15_PT150H.grib2 2026-04-24 16:32 1.2M
20260424T12Z_MSC_GDPS_WindU_IsbL-0700_LatLon0.15_PT150H.grib2 2026-04-24 16:32 1.2M
20260424T12Z_MSC_GDPS_WindU_IsbL-0750_LatLon0.15_PT150H.grib2 2026-04-24 16:32 1.3M
20260424T12Z_MSC_GDPS_WindU_IsbL-0800_LatLon0.15_PT150H.grib2 2026-04-24 16:32 1.4M
20260424T12Z_MSC_GDPS_WindU_IsbL-0850_LatLon0.15_PT150H.grib2 2026-04-24 16:32 1.4M
20260424T12Z_MSC_GDPS_WindU_IsbL-0875_LatLon0.15_PT150H.grib2 2026-04-24 16:32 1.5M
20260424T12Z_MSC_GDPS_WindU_IsbL-0900_LatLon0.15_PT150H.grib2 2026-04-24 16:32 1.5M
20260424T12Z_MSC_GDPS_WindU_IsbL-0925_LatLon0.15_PT150H.grib2 2026-04-24 16:32 1.5M
20260424T12Z_MSC_GDPS_WindU_IsbL-0950_LatLon0.15_PT150H.grib2 2026-04-24 16:32 1.4M
20260424T12Z_MSC_GDPS_WindU_IsbL-0970_LatLon0.15_PT150H.grib2 2026-04-24 16:32 1.4M
20260424T12Z_MSC_GDPS_WindU_IsbL-0985_LatLon0.15_PT150H.grib2 2026-04-24 16:32 1.4M
20260424T12Z_MSC_GDPS_WindU_IsbL-1000_LatLon0.15_PT150H.grib2 2026-04-24 16:32 1.4M
20260424T12Z_MSC_GDPS_WindU_IsbL-1015_LatLon0.15_PT150H.grib2 2026-04-24 16:32 1.4M
20260424T12Z_MSC_GDPS_WindV_AGL-10m_LatLon0.15_PT150H.grib2 2026-04-24 16:32 1.6M
20260424T12Z_MSC_GDPS_WindV_AGL-120m_LatLon0.15_PT150H.grib2 2026-04-24 16:32 1.0M
20260424T12Z_MSC_GDPS_WindV_AGL-40m_LatLon0.15_PT150H.grib2 2026-04-24 16:32 1.2M
20260424T12Z_MSC_GDPS_WindV_AGL-80m_LatLon0.15_PT150H.grib2 2026-04-24 16:32 1.2M
20260424T12Z_MSC_GDPS_WindV_IsbL-0001_LatLon0.15_PT150H.grib2 2026-04-24 16:32 773K
20260424T12Z_MSC_GDPS_WindV_IsbL-0005_LatLon0.15_PT150H.grib2 2026-04-24 16:32 757K
20260424T12Z_MSC_GDPS_WindV_IsbL-0010_LatLon0.15_PT150H.grib2 2026-04-24 16:32 788K
20260424T12Z_MSC_GDPS_WindV_IsbL-0020_LatLon0.15_PT150H.grib2 2026-04-24 16:32 1.1M
20260424T12Z_MSC_GDPS_WindV_IsbL-0030_LatLon0.15_PT150H.grib2 2026-04-24 16:32 843K
20260424T12Z_MSC_GDPS_WindV_IsbL-0050_LatLon0.15_PT150H.grib2 2026-04-24 16:32 896K
20260424T12Z_MSC_GDPS_WindV_IsbL-0100_LatLon0.15_PT150H.grib2 2026-04-24 16:32 1.1M
20260424T12Z_MSC_GDPS_WindV_IsbL-0150_LatLon0.15_PT150H.grib2 2026-04-24 16:32 1.0M
20260424T12Z_MSC_GDPS_WindV_IsbL-0175_LatLon0.15_PT150H.grib2 2026-04-24 16:32 1.0M
20260424T12Z_MSC_GDPS_WindV_IsbL-0200_LatLon0.15_PT150H.grib2 2026-04-24 16:32 847K
20260424T12Z_MSC_GDPS_WindV_IsbL-0225_LatLon0.15_PT150H.grib2 2026-04-24 16:32 856K
20260424T12Z_MSC_GDPS_WindV_IsbL-0250_LatLon0.15_PT150H.grib2 2026-04-24 16:32 853K
20260424T12Z_MSC_GDPS_WindV_IsbL-0275_LatLon0.15_PT150H.grib2 2026-04-24 16:32 876K
20260424T12Z_MSC_GDPS_WindV_IsbL-0300_LatLon0.15_PT150H.grib2 2026-04-24 16:32 864K
20260424T12Z_MSC_GDPS_WindV_IsbL-0350_LatLon0.15_PT150H.grib2 2026-04-24 16:32 876K
20260424T12Z_MSC_GDPS_WindV_IsbL-0400_LatLon0.15_PT150H.grib2 2026-04-24 16:32 877K
20260424T12Z_MSC_GDPS_WindV_IsbL-0450_LatLon0.15_PT150H.grib2 2026-04-24 16:32 1.1M
20260424T12Z_MSC_GDPS_WindV_IsbL-0500_LatLon0.15_PT150H.grib2 2026-04-24 16:32 1.1M
20260424T12Z_MSC_GDPS_WindV_IsbL-0550_LatLon0.15_PT150H.grib2 2026-04-24 16:32 1.1M
20260424T12Z_MSC_GDPS_WindV_IsbL-0600_LatLon0.15_PT150H.grib2 2026-04-24 16:32 1.1M
20260424T12Z_MSC_GDPS_WindV_IsbL-0650_LatLon0.15_PT150H.grib2 2026-04-24 16:32 1.2M
20260424T12Z_MSC_GDPS_WindV_IsbL-0700_LatLon0.15_PT150H.grib2 2026-04-24 16:32 1.2M
20260424T12Z_MSC_GDPS_WindV_IsbL-0750_LatLon0.15_PT150H.grib2 2026-04-24 16:32 1.2M
20260424T12Z_MSC_GDPS_WindV_IsbL-0800_LatLon0.15_PT150H.grib2 2026-04-24 16:32 1.3M
20260424T12Z_MSC_GDPS_WindV_IsbL-0850_LatLon0.15_PT150H.grib2 2026-04-24 16:32 1.4M
20260424T12Z_MSC_GDPS_WindV_IsbL-0875_LatLon0.15_PT150H.grib2 2026-04-24 16:32 1.5M
20260424T12Z_MSC_GDPS_WindV_IsbL-0900_LatLon0.15_PT150H.grib2 2026-04-24 16:32 1.5M
20260424T12Z_MSC_GDPS_WindV_IsbL-0925_LatLon0.15_PT150H.grib2 2026-04-24 16:32 1.4M
20260424T12Z_MSC_GDPS_WindV_IsbL-0950_LatLon0.15_PT150H.grib2 2026-04-24 16:32 1.4M
20260424T12Z_MSC_GDPS_WindV_IsbL-0970_LatLon0.15_PT150H.grib2 2026-04-24 16:32 1.4M
20260424T12Z_MSC_GDPS_WindV_IsbL-0985_LatLon0.15_PT150H.grib2 2026-04-24 16:32 1.4M
20260424T12Z_MSC_GDPS_WindV_IsbL-1000_LatLon0.15_PT150H.grib2 2026-04-24 16:32 1.7M
20260424T12Z_MSC_GDPS_WindV_IsbL-1015_LatLon0.15_PT150H.grib2 2026-04-24 16:32 1.7M